| time (UTC) | temp F | wind direction | speed MPH | gust MPH | rain 1hr in | rain 24hr in | rain mn in | humidity % | barometer mb |
| 20260506123328 | 78 | 206 | 3.0 | 11.0 | 0.00 | 0.00 | 0.00 | 35 | 1021.9 |
| 20260506120328 | 77 | 190 | 5.0 | 15.0 | 0.00 | 0.00 | 0.00 | 38 | 1021.7 |
| 20260506113330 | 78 | 181 | 5.0 | 14.0 | 0.00 | 0.00 | 0.00 | 36 | 1021.6 |
| 20260506110328 | 77 | 191 | 9.0 | 13.0 | 0.00 | 0.00 | 0.00 | 38 | 1021.6 |
| 20260506103329 | 77 | 165 | 3.0 | 19.0 | 0.00 | 0.00 | 0.00 | 35 | 1021.6 |
| 20260506100329 | 77 | 178 | 6.0 | 11.0 | 0.00 | 0.00 | 0.00 | 36 | 1021.4 |
| 20260506093329 | 77 | 195 | 5.0 | 9.0 | 0.00 | 0.00 | 0.00 | 34 | 1021.3 |
| 20260506090329 | 75 | 207 | 6.0 | 11.0 | 0.00 | 0.00 | 0.00 | 34 | 1021.5 |
| 20260506083330 | 74 | 218 | 3.0 | 7.0 | 0.00 | 0.00 | 0.00 | 37 | 1021.4 |
| 20260506080330 | 74 | 166 | 3.0 | 8.0 | 0.00 | 0.00 | 0.00 | 35 | 1021.6 |
| 20260506073328 | 72 | 189 | 2.0 | 6.0 | 0.00 | 0.00 | 0.00 | 36 | 1021.4 |
| 20260506070329 | 69 | 190 | 3.0 | 6.0 | 0.00 | 0.00 | 0.00 | 40 | 1021.0 |
| 20260506060328 | 62 | 231 | 1.0 | 3.0 | 0.00 | 0.00 | 0.00 | 51 | 1021.0 |
| 20260506050328 | 61 | 126 | 2.0 | 7.0 | 0.00 | 0.00 | 0.00 | 51 | 1021.3 |
| 20260506043329 | 59 | 136 | 3.0 | 5.0 | 0.00 | 0.00 | 0.00 | 54 | 1021.0 |
| 20260506040329 | 55 | 45 | 0.0 | 2.0 | 0.00 | 0.00 | 0.00 | 59 | 1020.9 |
| 20260506033328 | 54 | 181 | 0.0 | 1.0 | 0.00 | 0.00 | 0.00 | 58 | 1021.1 |
| 20260506030328 | 54 | 139 | 1.0 | 3.0 | 0.00 | 0.00 | 0.00 | 57 | 1021.0 |
| 20260506023330 | 56 | 45 | 0.0 | 0.0 | 0.00 | 0.00 | 0.00 | 52 | 1021.1 |
| 20260506020328 | 57 | 314 | 0.0 | 0.0 | 0.00 | 0.00 | 0.00 | 50 | 1020.7 |
| 20260506013330 | 57 | 168 | 0.0 | 3.0 | 0.00 | 0.00 | 0.00 | 52 | 1020.6 |
| 20260506010330 | 56 | 163 | 1.0 | 3.0 | 0.00 | 0.00 | 0.00 | 52 | 1020.8 |
| 20260506003329 | 55 | 168 | 1.0 | 5.0 | 0.00 | 0.00 | 0.00 | 53 | 1020.7 |
| 20260506000330 | 56 | 161 | 1.0 | 3.0 | 0.00 | 0.00 | 0.00 | 52 | 1020.9 |
| 20260505233329 | 56 | 166 | 2.0 | 4.0 | 0.00 | 0.00 | 0.00 | 51 | 1020.9 |
| 20260505230329 | 57 | 186 | 1.0 | 4.0 | 0.00 | 0.00 | 0.00 | 51 | 1021.3 |
| 20260505223330 | 58 | 166 | 1.0 | 4.0 | 0.00 | 0.00 | 0.00 | 48 | 1021.3 |
| 20260505220330 | 59 | 163 | 1.0 | 5.0 | 0.00 | 0.00 | 0.00 | 46 | 1021.3 |
| 20260505213329 | 59 | 168 | 1.0 | 3.0 | 0.00 | 0.00 | 0.00 | 46 | 1021.5 |
| 20260505210329 | 61 | 176 | 2.0 | 3.0 | 0.00 | 0.00 | 0.00 | 44 | 1021.4 |
| 20260505203328 | 63 | 170 | 1.0 | 6.0 | 0.00 | 0.00 | 0.00 | 39 | 1021.5 |
| 20260505200328 | 64 | 201 | 2.0 | 3.0 | 0.00 | 0.00 | 0.00 | 39 | 1021.7 |
| 20260505193329 | 64 | 165 | 1.0 | 3.0 | 0.00 | 0.00 | 0.00 | 39 | 1022.6 |
| 20260505190328 | 68 | 146 | 3.0 | 5.0 | 0.00 | 0.00 | 0.00 | 34 | 1022.7 |
| 20260505183329 | 69 | 156 | 2.0 | 5.0 | 0.00 | 0.00 | 0.00 | 31 | 1023.1 |
| 20260505180328 | 72 | 137 | 3.0 | 6.0 | 0.00 | 0.00 | 0.00 | 22 | 1023.5 |
| 20260505173328 | 75 | 139 | 2.0 | 5.0 | 0.00 | 0.00 | 0.00 | 21 | 1023.1 |
| 20260505170327 | 78 | 152 | 3.0 | 6.0 | 0.00 | 0.00 | 0.00 | 19 | 1023.1 |
| 20260505163328 | 79 | 141 | 2.0 | 4.0 | 0.00 | 0.00 | 0.00 | 10 | 1022.7 |
| 20260505153059 | 78 | 149 | 3.0 | 9.0 | 0.00 | 0.00 | 0.00 | 10 | 1022.9 |